Location: ?astrovice
(49.6513°N, 14.9287°E)
Time: 07:37:46
(UTC+00:00)

BEESAT - Pass Details

Date: 24 October 2021
Orbit: 700 x 707 km, 98.6° (Epoch: 06 December)

Event Time Altitude Azimuth Distance (km) Brightness Sun altitude
Rises 04:37:51 0° 134° (SE) 3,080 ? -10.1°
Reaches altitude 10° 04:40:18 10° 124° (SE) 2,166 ? -9.7°
Maximum altitude 04:44:26 31° 63° (ENE) 1,232 ? -9.0°
Drops below altitude 10° 04:48:35 10° 3° (N) 2,178 ? -8.3°
Sets 04:51:02 0° 353° (N) 3,101 ? -7.9°
